Weather History for KHFJ - July, 2013

Change the Weather History Date:

Sunday, July 14, 2013

  Actual Average (KJLN) Record (KJLN)
Temperature  
Mean Temperature 74 °F 80 °F  
Max Temperature 87 °F 91 °F 115 °F (1954)
Min Temperature 62 °F 70 °F 52 °F (1967)
Degree Days  
Heating Degree Days 0 0  
Month to date heating degree days 0  
Since 1 June heating degree days 5  
Since 1 July heating degree days 0  
Cooling Degree Days 10 15  
Month to date cooling degree days 206  
Year to date cooling degree days 704  
Since 1 June cooling degree days 524  
Growing Degree Days 24 (Base 50)    
Moisture  
Dew Point 57 °F    
Average Humidity 56    
Maximum Humidity 88    
Minimum Humidity 29    
Precipitation  
Precipitation 0.00 in 0.13 in 2.02 in (1959)
Month to date precipitation 1.94  
Year to date precipitation 25.75  
Sea Level Pressure  
Sea Level Pressure 30.04 in    
Wind  
Wind Speed 7 mph (ESE)    
Max Wind Speed 15 mph    
Max Gust Speed 21 mph    
Visibility 10 miles    
Events      
T = Trace of Precipitation, MM = Missing Value Source: NWS Daily Summary

Daily Weather History Graph

Daily Weather History Graph

Search for Another Location

Airport or City:

Trip Planner

Search our weather history database for the weather conditions in past years. The results will help you decide how hot, cold, wet, or windy it might be!

Date:

Astronomy

Jul. 14, 2013 Rise Set
Actual Time 6:08 AM CDT 8:35 PM CDT
Civil Twilight 5:37 AM CDT 9:05 PM CDT
Nautical Twilight 5:00 AM CDT 9:42 PM CDT
Astronomical Twilight 4:19 AM CDT 10:23 PM CDT
Moon 12:14 PM CDT (7/14) 11:59 PM CDT (7/14)
Length of Visible Light 15h 27m
Length of Day
14h 27m
Waxing Crescent, 35% of the Moon is Illuminated
Jul 14
Waxing Crescent
Jul 15
First Quarter
Jul 22
Full
Jul 29
Last Quarter
Aug 6
New

Hourly Weather History & Observations

Time (CDT) Temp. Heat Index Dew Point Humidity Pressure Visibility Wind Dir Wind Speed Gust Speed Precip Events Conditions
12:15 AM 71.6 °F - 59.0 °F 64% 30.03 in 10.0 mi East 5.8 mph - N/A   Clear
12:35 AM 71.6 °F - 59.0 °F 64% 30.03 in 10.0 mi East 6.9 mph - N/A   Clear
12:55 AM 71.6 °F - 59.0 °F 64% 30.02 in 10.0 mi East 5.8 mph - N/A   Clear
1:15 AM 71.6 °F - 59.0 °F 64% 30.01 in 10.0 mi ESE 6.9 mph - N/A   Scattered Clouds
1:35 AM 69.8 °F - 59.0 °F 68% 30.01 in 10.0 mi ESE 4.6 mph - N/A   Scattered Clouds
1:55 AM 68.0 °F - 59.0 °F 73% 30.00 in 10.0 mi ESE 5.8 mph - N/A   Clear
2:15 AM 68.0 °F - 59.0 °F 73% 30.00 in 10.0 mi ESE 6.9 mph - N/A   Clear
2:35 AM 68.0 °F - 59.0 °F 73% 30.01 in 10.0 mi East 6.9 mph - N/A   Clear
2:55 AM 66.2 °F - 59.0 °F 78% 30.01 in 10.0 mi ESE 9.2 mph - N/A   Clear
3:15 AM 68.0 °F - 59.0 °F 73% 30.00 in 10.0 mi ESE 9.2 mph - N/A   Clear
3:35 AM 66.2 °F - 59.0 °F 78% 30.01 in 10.0 mi ESE 5.8 mph - N/A   Clear
3:55 AM 64.4 °F - 59.0 °F 83% 30.02 in 10.0 mi ESE 4.6 mph - N/A   Clear
4:15 AM 64.4 °F - 59.0 °F 83% 30.02 in 10.0 mi ESE 5.8 mph - N/A   Clear
4:35 AM 64.4 °F - 59.0 °F 83% 30.03 in 10.0 mi ESE 4.6 mph - N/A   Clear
4:55 AM 62.6 °F - 59.0 °F 88% 30.03 in 10.0 mi ESE 4.6 mph - N/A   Clear
5:15 AM 62.6 °F - 59.0 °F 88% 30.03 in 10.0 mi ESE 5.8 mph - N/A   Clear
5:35 AM 62.6 °F - 57.2 °F 82% 30.03 in 10.0 mi ESE 5.8 mph - N/A   Clear
5:55 AM 62.6 °F - 59.0 °F 88% 30.03 in 10.0 mi ESE 6.9 mph - N/A   Clear
6:15 AM 62.6 °F - 59.0 °F 88% 30.03 in 10.0 mi ESE 6.9 mph - N/A   Clear
6:35 AM 62.6 °F - 59.0 °F 88% 30.03 in 10.0 mi ESE 4.6 mph - N/A   Clear
6:55 AM 62.6 °F - 59.0 °F 88% 30.04 in 10.0 mi ESE 5.8 mph - N/A   Clear
7:15 AM 64.4 °F - 59.0 °F 83% 30.05 in 10.0 mi ESE 6.9 mph - N/A   Clear
7:35 AM 66.2 °F - 59.0 °F 78% 30.05 in 10.0 mi ESE 5.8 mph - N/A   Clear
7:55 AM 68.0 °F - 59.0 °F 73% 30.06 in 10.0 mi ESE 6.9 mph - N/A   Clear
8:15 AM 69.8 °F - 60.8 °F 73% 30.07 in 10.0 mi SE 5.8 mph - N/A   Clear
8:35 AM 71.6 °F - 59.0 °F 64% 30.08 in 10.0 mi SE 5.8 mph - N/A   Clear
8:55 AM 73.4 °F - 60.8 °F 65% 30.08 in 10.0 mi SE 5.8 mph - N/A   Clear
9:15 AM 75.2 °F - 60.8 °F 61% 30.08 in 10.0 mi SSE 9.2 mph - N/A   Clear
9:35 AM 77.0 °F - 60.8 °F 57% 30.08 in 10.0 mi SE 9.2 mph - N/A   Clear
9:55 AM 77.0 °F - 59.0 °F 54% 30.08 in 10.0 mi SSE 10.4 mph - N/A   Clear
10:15 AM 78.8 °F - 59.0 °F 51% 30.08 in 10.0 mi SE 12.7 mph 16.1 mph N/A   Clear
10:35 AM 78.8 °F - 59.0 °F 51% 30.08 in 10.0 mi SE 10.4 mph - N/A   Clear
10:55 AM 78.8 °F - 59.0 °F 51% 30.07 in 10.0 mi SE 8.1 mph - N/A   Clear
11:15 AM 80.6 °F 81.5 °F 60.8 °F 51% 30.07 in 10.0 mi East 12.7 mph 16.1 mph N/A   Clear
11:35 AM 80.6 °F 81.1 °F 59.0 °F 48% 30.07 in 10.0 mi SE 13.8 mph 18.4 mph N/A   Clear
11:55 AM 78.8 °F - 59.0 °F 51% 30.07 in 10.0 mi SE 8.1 mph 17.3 mph N/A   Scattered Clouds
12:15 PM 80.6 °F 80.8 °F 57.2 °F 45% 30.07 in 10.0 mi East 15.0 mph 18.4 mph N/A   Mostly Cloudy
12:35 PM 80.6 °F 80.5 °F 55.4 °F 42% 30.07 in 10.0 mi SE 9.2 mph 18.4 mph N/A   Scattered Clouds
12:55 PM 80.6 °F 80.5 °F 55.4 °F 42% 30.06 in 10.0 mi ESE 5.8 mph 19.6 mph N/A   Scattered Clouds
1:15 PM 82.4 °F 81.7 °F 55.4 °F 39% 30.06 in 10.0 mi ESE 15.0 mph 20.7 mph N/A   Scattered Clouds
1:35 PM 82.4 °F 81.7 °F 55.4 °F 39% 30.05 in 10.0 mi SE 9.2 mph - N/A   Clear
1:55 PM 82.4 °F 81.7 °F 55.4 °F 39% 30.05 in 10.0 mi East 11.5 mph 18.4 mph N/A   Scattered Clouds
2:15 PM 84.2 °F 83.0 °F 55.4 °F 37% 30.04 in 10.0 mi East 5.8 mph - N/A   Clear
2:35 PM 86.0 °F 84.5 °F 55.4 °F 35% 30.04 in 10.0 mi ESE 9.2 mph - N/A   Scattered Clouds
2:55 PM 86.0 °F 84.5 °F 55.4 °F 35% 30.04 in 10.0 mi SE 11.5 mph 17.3 mph N/A   Scattered Clouds
3:15 PM 86.0 °F 84.5 °F 55.4 °F 35% 30.04 in 10.0 mi East 10.4 mph - N/A   Scattered Clouds
3:35 PM 86.0 °F 84.5 °F 55.4 °F 35% 30.03 in 10.0 mi East 10.4 mph 17.3 mph N/A   Scattered Clouds
3:55 PM 86.0 °F 84.5 °F 55.4 °F 35% 30.03 in 10.0 mi ESE 10.4 mph 16.1 mph N/A   Scattered Clouds
4:15 PM 86.0 °F 84.2 °F 53.6 °F 33% 30.03 in 10.0 mi East 9.2 mph - N/A   Scattered Clouds
4:35 PM 86.0 °F 84.2 °F 53.6 °F 33% 30.03 in 10.0 mi SSE 12.7 mph - N/A   Clear
4:55 PM 87.8 °F - 51.8 °F 29% 30.03 in 10.0 mi ESE 11.5 mph - N/A   Scattered Clouds
5:15 PM 87.8 °F - 51.8 °F 29% 30.03 in 10.0 mi SE 8.1 mph - N/A   Scattered Clouds
5:35 PM 86.0 °F 84.2 °F 53.6 °F 33% 30.03 in 10.0 mi East 9.2 mph - N/A   Scattered Clouds
5:55 PM 86.0 °F - 51.8 °F 31% 30.02 in 10.0 mi SE 8.1 mph - N/A   Scattered Clouds
6:15 PM 84.2 °F - 51.8 °F 33% 30.02 in 10.0 mi ESE 9.2 mph 19.6 mph N/A   Scattered Clouds
6:35 PM 86.0 °F - 51.8 °F 31% 30.02 in 10.0 mi East 11.5 mph 17.3 mph N/A   Scattered Clouds
6:55 PM 84.2 °F - 51.8 °F 33% 30.02 in 10.0 mi ESE 12.7 mph 18.4 mph N/A   Clear
7:15 PM 82.4 °F 81.4 °F 53.6 °F 37% 30.02 in 10.0 mi ESE 8.1 mph - N/A   Clear
7:35 PM 80.6 °F 80.3 °F 53.6 °F 39% 30.03 in 10.0 mi ESE 6.9 mph - N/A   Clear
7:55 PM 78.8 °F - 53.6 °F 42% 30.04 in 10.0 mi ESE 5.8 mph - N/A   Clear
8:15 PM 77.0 °F - 53.6 °F 44% 30.04 in 10.0 mi ESE 6.9 mph - N/A   Clear
8:35 PM 75.2 °F - 53.6 °F 47% 30.05 in 10.0 mi East 5.8 mph - N/A   Clear
8:55 PM 75.2 °F - 53.6 °F 47% 30.05 in 10.0 mi East 6.9 mph - N/A   Clear
9:15 PM 73.4 °F - 53.6 °F 50% 30.05 in 10.0 mi ESE 6.9 mph - N/A   Clear
9:35 PM 73.4 °F - 53.6 °F 50% 30.05 in 10.0 mi East 5.8 mph - N/A   Clear
9:55 PM 71.6 °F - 55.4 °F 57% 30.06 in 10.0 mi ESE 6.9 mph - N/A   Clear
10:15 PM 71.6 °F - 55.4 °F 57% 30.08 in 10.0 mi ESE 6.9 mph - N/A   Clear
10:35 PM 71.6 °F - 55.4 °F 57% 30.08 in 10.0 mi ESE 5.8 mph - N/A   Clear
10:55 PM 71.6 °F - 55.4 °F 57% 30.08 in 10.0 mi East 8.1 mph - N/A   Clear
11:15 PM 71.6 °F - 55.4 °F 57% 30.08 in 10.0 mi East 6.9 mph - N/A   Clear
11:35 PM 69.8 °F - 55.4 °F 60% 30.08 in 10.0 mi East 5.8 mph - N/A   Clear
11:55 PM 69.8 °F - 55.4 °F 60% 30.10 in 10.0 mi ESE 3.5 mph - N/A   Clear